Home   Weather   Bemidji   Past weeks
Flag for USA

Past Weather in Bemidji, Minnesota, USA — Yesterday and Last 2 Weeks

Now
0 °F

Light snow. Overcast.


Feels Like: -19 °F
Forecast: 6 / -1 °F
Wind: 15 mph from Northwest

Location: Bemidji-Beltrami County Airport

Current Time: Jan 19, 2020 at 4:37:03 am

Latest Report: Jan 19, 2020 at 4:15 am


Visibility: 10 mi

Pressure: 30.30 "Hg

Humidity: 79%

Dew Point: -4 °F

Location of BemidjiLocation

Past Weather in Bemidji — Graph

°F

Bemidji Temperature Yesterday

Maximum temperature yesterday: 17 °F (at 2:55 am)
Minimum temperature yesterday: -1 °F (at 11:55 pm)
Average temperature yesterday: 8 °F

High & Low Weather Summary for the Past Weeks

 TemperatureHumidityPressure
High35 °F (Jan 6, 1:55 pm)99% (Jan 4, 1:16 am)30.74 "Hg (Jan 4, 1:16 am)
Low-32 °F (Jan 11, 7:56 am)50% (Jan 6, 3:36 pm)29.61 "Hg (Jan 5, 4:56 am)
Average7 °F78%30.08 "Hg
* Reported Jan 4 1:16 am — Jan 19 1:15 am, Bemidji. Weather by CustomWeather, © 2020

Note: Actual official high and low records may vary slightly from our data, if they occured in-between our weather recording intervals... More about our weather records

Bemidji Weather History for the Previous 24 Hours

Scroll right to see more
 ConditionsComfort  
Time TempWeatherWind HumidityBarometerVisibility
1:15 am
Sun, Jan 19
0 °FLight snow. Mostly cloudy.16 mph80%30.20 "Hg5 mi
12:55 am0 °FLight snow. Passing clouds.16 mph79%30.19 "Hg7 mi
12:36 am0 °FLight snow. Passing clouds.16 mph79%30.18 "Hg5 mi
12:16 am0 °FLight snow. Passing clouds.18 mph79%30.18 "Hg7 mi
11:55 pm
Sat, Jan 18
-1 °FLight snow. Passing clouds.15 mph80%30.17 "Hg7 mi
11:35 pm0 °FLight snow. Passing clouds.18 mph79%30.16 "Hg7 mi
11:15 pm0 °FLight snow. Clear.18 mph79%30.14 "Hg5 mi
10:56 pm0 °FLight snow. Passing clouds.22 mph79%30.13 "Hg7 mi
10:35 pm0 °FPartly cloudy.18 mph79%30.12 "Hg7 mi
10:15 pm0 °FLight snow. Partly cloudy.17 mph79%30.12 "Hg7 mi
9:35 pm0 °FLight snow. Passing clouds.21 mph78%30.10 "Hg4 mi
9:15 pm0 °FLight snow. Passing clouds.21 mph78%30.09 "Hg3 mi
8:35 pm0 °FLight snow. Passing clouds.20 mph80%30.07 "Hg4 mi
7:55 pm0 °FLight snow. Passing clouds.21 mph79%30.05 "Hg3 mi
7:36 pm0 °FLight snow. Partly cloudy.20 mph79%30.05 "Hg3 mi
7:15 pm0 °FLight snow. Partly cloudy.23 mph79%30.03 "Hg3 mi
6:55 pm0 °FLight snow. Partly cloudy.20 mph79%30.02 "Hg5 mi
6:35 pm0 °FLight snow. Passing clouds.18 mph79%30.01 "Hg5 mi
5:56 pm1 °FLight snow. Passing clouds.21 mph78%29.98 "Hg4 mi
5:16 pm2 °FLight snow. Partly cloudy.21 mph77%29.96 "Hg2 mi
4:55 pm2 °FLight snow. Mostly cloudy.22 mph77%29.95 "Hg2 mi
4:15 pm3 °FLight snow. Mostly cloudy.22 mph78%29.93 "Hg1 mi
3:55 pm3 °FLight snow. Mostly cloudy.16 mph77%29.91 "Hg2 mi
3:35 pm3 °FLight snow. More clouds than sun.22 mph76%29.90 "Hg2 mi
2:35 pm3 °FLight snow. Mostly cloudy.22 mph76%29.87 "Hg2 mi
2:15 pm3 °FLight snow. Mostly cloudy.20 mph76%29.86 "Hg2 mi
1:56 pm4 °FLight snow. Mostly cloudy.20 mph75%29.86 "Hg2 mi
1:35 pm4 °FLight snow. Partly sunny.21 mph75%29.85 "Hg2 mi
12:55 pm5 °FLight snow. Overcast.20 mph75%29.83 "Hg2 mi
12:16 pm5 °FLight snow. Mostly cloudy.18 mph75%29.83 "Hg2 mi
11:55 am6 °FLight snow. Mostly cloudy.14 mph78%29.82 "Hg2 mi
11:35 am6 °FOvercast.23 mph76%29.82 "Hg1 mi
11:15 am6 °FLight snow. Scattered clouds.21 mph76%29.82 "Hg2 mi
10:55 am5 °FLight snow. Partly sunny.23 mph78%29.81 "Hg2 mi
10:36 am5 °FLight snow. Overcast.23 mph79%29.81 "Hg1 mi
10:15 am6 °FLight snow. Overcast.20 mph80%29.80 "Hg2 mi
9:55 am6 °FLight snow. Scattered clouds.17 mph82%29.79 "Hg3 mi
9:35 am8 °FLight snow. Scattered clouds.20 mph82%29.78 "Hg2 mi
9:16 am10 °FLight snow. Partly sunny.17 mph83%29.77 "Hg3 mi
8:55 am13 °FLight snow. Overcast.14 mph86%29.75 "Hg3 mi
8:36 am14 °FLight snow. Overcast.14 mph87%29.75 "Hg7 mi
8:15 am14 °FPartly sunny.9 mph89%29.74 "Hg10 mi
7:35 am15 °FLight snow. Passing clouds.7 mph92%29.75 "Hg5 mi
7:15 am15 °FLight snow. Mostly cloudy.5 mph93%29.75 "Hg2 mi
6:55 am15 °FLight snow. Mostly cloudy.5 mph93%29.75 "Hg2 mi
6:35 am15 °FLight snow. Overcast.3 mph93%29.75 "Hg1 mi
5:55 am15 °FSnow. Overcast.No wind93%29.75 "Hg1 mi
5:35 am15 °FSnow. Overcast.No wind93%29.75 "Hg1 mi
5:16 am15 °FSnow. Overcast.No wind93%29.76 "Hg1 mi
4:56 am15 °FSnow. Overcast.No wind93%29.76 "Hg1 mi
4:35 am15 °FSnow. Overcast.No wind93%29.76 "Hg1 mi
4:15 am15 °FLight snow. Partly cloudy.No wind93%29.77 "Hg3 mi
Weather by CustomWeather, © 2020

See weather overview

Advertising